Eugene, OR

5:50 AM PST on December 08, 2019 (GMT -0800)
Mahlon Sweet

Weather History for KEUG - October, 2019

Change the Weather History Date:

Sunday, October 20, 2019

  Actual Average Record
Temperature  
Mean Temperature 53 °F 51 °F  
Max Temperature 60 °F 62 °F 80 °F (2003)
Min Temperature 45 °F 41 °F 24 °F (1949)
Degree Days  
Heating Degree Days 12 14  
Month to date heating degree days 284 215  
Since 1 July heating degree days 402 403  
Cooling Degree Days 0 0  
Month to date cooling degree days 0 0  
Year to date cooling degree days 353 238  
Growing Degree Days 4 (Base 50)    
Moisture  
Dew Point 48 °F    
Average Humidity 83    
Maximum Humidity 93    
Minimum Humidity 72    
Precipitation  
Precipitation 0.01 in 0.12 in 1.59 in (1979)
Month to date precipitation 1.11 1.61  
Year to date precipitation 29.60 28.91  
Sea Level Pressure  
Sea Level Pressure 30.14 in    
Wind  
Wind Speed 10 mph (South)    
Max Wind Speed 21 mph    
Max Gust Speed 26 mph    
Visibility 10 miles    
Events Rain    
T = Trace of Precipitation, MM = Missing Value Source: NWS Daily Summary

Daily Weather History Graph

Daily Weather History Graph

Search for Another Location

Airport or City:

Astronomy

Oct. 20, 2019 Rise Set
Actual Time 7:33 AM PDT 6:20 PM PDT
Civil Twilight 7:04 AM PDT 6:50 PM PDT
Nautical Twilight 6:30 AM PDT 7:23 PM PDT
Astronomical Twilight 5:57 AM PDT 7:57 PM PDT
Moon 11:27 PM PDT (10/20) 2:15 PM PDT (10/20)
Length of Visible Light 11h 45m
Length of Day
10h 47m
Waning Gibbous, 58% of the Moon is Illuminated
Oct 20
Waning Gibbous
Oct 21
Last Quarter
Oct 27
New
Nov 4
First Quarter
Nov 12
Full

Hourly Weather History & Observations

Time (PDT) Temp. Windchill Dew Point Humidity Pressure Visibility Wind Dir Wind Speed Gust Speed Precip Events Conditions
12:54 AM 46.0 °F 44.8 °F 43.0 °F 89% 30.16 in 10.0 mi SSE 3.5 mph - N/A   Clear
1:54 AM 46.9 °F - 44.1 °F 90% 30.15 in 10.0 mi SSE 6.9 mph - N/A   Clear
2:54 AM 48.0 °F - 44.1 °F 86% 30.15 in 10.0 mi SSE 6.9 mph - N/A   Mostly Cloudy
3:54 AM 48.9 °F - 45.0 °F 86% 30.14 in 10.0 mi SSE 5.8 mph - N/A   Overcast
4:54 AM 48.9 °F - 45.0 °F 86% 30.12 in 10.0 mi SE 6.9 mph - N/A   Overcast
5:54 AM 48.9 °F - 44.1 °F 83% 30.10 in 10.0 mi SSE 9.2 mph - N/A   Overcast
6:54 AM 48.9 °F - 44.1 °F 83% 30.11 in 10.0 mi South 8.1 mph - 0.00 in Rain Light Rain
7:54 AM 48.9 °F - 45.0 °F 86% 30.11 in 10.0 mi SSE 6.9 mph - 0.01 in   Overcast
8:54 AM 48.9 °F - 45.0 °F 86% 30.11 in 10.0 mi South 4.6 mph - 0.00 in   Overcast
9:54 AM 51.1 °F - 46.0 °F 83% 30.11 in 10.0 mi SSE 11.5 mph - N/A   Overcast
10:54 AM 53.1 °F - 46.0 °F 77% 30.10 in 10.0 mi South 13.8 mph 23.0 mph N/A   Overcast
11:27 AM 53.1 °F - 46.0 °F 77% 30.11 in 10.0 mi South 17.3 mph - N/A   Overcast
11:54 AM 53.1 °F - 46.9 °F 80% 30.11 in 7.0 mi South 15.0 mph - N/A   Overcast
12:54 PM 55.0 °F - 48.0 °F 77% 30.12 in 10.0 mi South 13.8 mph - N/A   Overcast
1:54 PM 55.9 °F - 50.0 °F 80% 30.12 in 10.0 mi South 13.8 mph - N/A   Mostly Cloudy
2:54 PM 57.9 °F - 51.1 °F 78% 30.11 in 10.0 mi SSW 12.7 mph - N/A   Mostly Cloudy
3:14 PM 59.0 °F - 51.1 °F 75% 30.11 in 10.0 mi SSW 11.5 mph - N/A   Mostly Cloudy
3:54 PM 60.1 °F - 52.0 °F 75% 30.12 in 10.0 mi SSW 15.0 mph - N/A   Mostly Cloudy
4:54 PM 60.1 °F - 52.0 °F 75% 30.14 in 10.0 mi SSW 13.8 mph - N/A   Mostly Cloudy
5:54 PM 57.0 °F - 52.0 °F 83% 30.15 in 10.0 mi SW 6.9 mph - 0.00 in Rain Light Rain
6:54 PM 54.0 °F - 51.1 °F 90% 30.15 in 10.0 mi SSW 5.8 mph - 0.00 in   Mostly Cloudy
7:54 PM 54.0 °F - 52.0 °F 93% 30.17 in 10.0 mi SW 8.1 mph - N/A   Mostly Cloudy
8:54 PM 54.0 °F - 51.1 °F 90% 30.19 in 10.0 mi WSW 5.8 mph - N/A   Overcast
9:21 PM 55.0 °F - 52.0 °F 89% 30.19 in 10.0 mi WSW 4.6 mph - N/A   Overcast
9:54 PM 55.0 °F - 52.0 °F 89% 30.21 in 10.0 mi West 3.5 mph - N/A   Overcast
10:05 PM 54.0 °F - 51.1 °F 90% 30.20 in 10.0 mi South 3.5 mph - N/A   Overcast
10:54 PM 52.0 °F - 50.0 °F 93% 30.21 in 10.0 mi South 6.9 mph - N/A   Mostly Cloudy
11:54 PM 50.0 °F - 48.0 °F 93% 30.22 in 10.0 mi SSE 4.6 mph - N/A   Partly Cloudy